N282WB LWSK-LIPH

Flight info

Callsign N282WB
Flight time N/A
Altitude 43000
Route GOSTI DCT MAVAR DCT LABIN/N0354F180 L614 CHI N503 INBUT
Aircraft C25B/M-SDE2E3FGHRWXY/LB1

Departure

Time 2026-04-22 18:49
Airport Skopje International Airport (LWSK)

Arrival

Time N/A
Airport Treviso Airport (LIPH)
Time Latitude Longitude Altitude Speed Heading
2026-04-22 18:29 41.95794 21.62678 783 ft 0 kts 75°
2026-04-22 18:40 41.95794 21.62677 756 ft 0 kts 75°
2026-04-22 18:40 41.95794 21.62681 756 ft 1 kts 97°
2026-04-22 18:40 41.95777 21.62672 782 ft 5 kts 236°
2026-04-22 18:40 41.95765 21.62648 782 ft 0 kts 240°
2026-04-22 18:41 41.95763 21.62642 782 ft 3 kts 276°
2026-04-22 18:41 41.95782 21.62623 783 ft 3 kts 290°
2026-04-22 18:41 41.95775 21.62562 783 ft 10 kts 285°
2026-04-22 18:41 41.95819 21.62534 784 ft 11 kts 346°
2026-04-22 18:42 41.95911 21.62502 786 ft 13 kts 346°
2026-04-22 18:42 41.96003 21.62470 786 ft 14 kts 345°
2026-04-22 18:42 41.96097 21.62435 786 ft 11 kts 345°
2026-04-22 18:42 41.96166 21.62410 786 ft 11 kts 344°
2026-04-22 18:43 41.96239 21.62385 787 ft 11 kts 345°
2026-04-22 18:43 41.96319 21.62356 787 ft 12 kts 345°
2026-04-22 18:43 41.96403 21.62326 787 ft 13 kts 345°
2026-04-22 18:43 41.96493 21.62294 788 ft 14 kts 346°
2026-04-22 18:44 41.96584 21.62262 788 ft 13 kts 345°
2026-04-22 18:44 41.96648 21.62240 788 ft 9 kts 346°
2026-04-22 18:44 41.96715 21.62216 788 ft 11 kts 345°
2026-04-22 18:44 41.96789 21.62191 788 ft 11 kts 346°
2026-04-22 18:45 41.96862 21.62163 789 ft 11 kts 337°
2026-04-22 18:45 41.96917 21.62091 787 ft 12 kts 309°
2026-04-22 18:45 41.96966 21.62009 786 ft 10 kts 309°
2026-04-22 18:45 41.97003 21.61944 785 ft 8 kts 296°
2026-04-22 18:46 41.96999 21.61870 785 ft 7 kts 251°
2026-04-22 18:46 41.96994 21.61855 785 ft 1 kts 218°
2026-04-22 18:46 41.96980 21.61858 785 ft 0 kts 162°
2026-04-22 18:49 41.96487 21.62028 810 ft 145 kts 166°
2026-04-22 18:49 41.95287 21.62460 1527 ft 207 kts 166°
2026-04-22 18:49 41.93823 21.63003 2326 ft 219 kts 166°
2026-04-22 18:49 41.92374 21.63572 3144 ft 224 kts 164°
2026-04-22 18:50 41.90891 21.64156 4135 ft 215 kts 162°
2026-04-22 18:50 41.89461 21.64721 5054 ft 220 kts 161°
2026-04-22 18:50 41.87985 21.65306 6334 ft 222 kts 161°
2026-04-22 18:50 41.86492 21.65898 7609 ft 225 kts 161°
2026-04-22 18:51 41.84989 21.66500 8922 ft 226 kts 161°
2026-04-22 18:51 41.83440 21.66941 10135 ft 231 kts 174°
2026-04-22 18:51 41.81834 21.67116 11274 ft 233 kts 170°
2026-04-22 18:51 41.80389 21.68037 12389 ft 237 kts 135°
2026-04-22 18:52 41.79724 21.70052 13512 ft 244 kts 95°
2026-04-22 18:52 41.80156 21.72244 14511 ft 251 kts 55°
2026-04-22 18:52 41.81514 21.73640 15482 ft 249 kts 14°
2026-04-22 18:52 41.83186 21.73598 16517 ft 239 kts 334°
2026-04-22 18:53 41.84484 21.72304 17673 ft 232 kts 311°
2026-04-22 18:53 41.85662 21.70821 18774 ft 233 kts 315°
2026-04-22 18:53 41.86943 21.69474 19784 ft 236 kts 318°
2026-04-22 18:53 41.88284 21.68186 20784 ft 238 kts 318°
2026-04-22 18:54 41.89545 21.66771 21766 ft 234 kts 307°
2026-04-22 18:54 41.90565 21.65076 22768 ft 233 kts 299°
2026-04-22 18:54 41.91324 21.63172 23768 ft 231 kts 290°
2026-04-22 18:54 41.91807 21.61156 24606 ft 230 kts 281°
2026-04-22 18:55 41.92018 21.59033 25455 ft 230 kts 272°
2026-04-22 18:55 41.91938 21.56879 26310 ft 233 kts 265°
2026-04-22 18:55 41.91557 21.54750 27135 ft 237 kts 257°
2026-04-22 18:55 41.91052 21.52633 27981 ft 239 kts 258°
2026-04-22 18:56 41.90556 21.50493 28824 ft 241 kts 258°
2026-04-22 18:56 41.90052 21.48342 29671 ft 243 kts 259°
2026-04-22 18:56 41.89543 21.46168 30444 ft 246 kts 258°
2026-04-22 18:56 41.89198 21.44713 30868 ft 248 kts 258°
2026-04-22 18:57 41.88493 21.41720 31766 ft 250 kts 258°
2026-04-22 18:57 41.88148 21.40267 32467 ft 244 kts 258°
2026-04-22 18:57 41.87631 21.38064 33070 ft 251 kts 258°
2026-04-22 18:57 41.86924 21.35062 33850 ft 258 kts 258°
2026-04-22 18:58 41.86379 21.32746 34392 ft 263 kts 258°
2026-04-22 18:58 41.86000 21.31153 34681 ft 267 kts 258°
2026-04-22 18:58 41.85430 21.28754 35144 ft 273 kts 258°
2026-04-22 18:58 41.84857 21.26328 35605 ft 279 kts 258°
2026-04-22 18:59 41.84263 21.23825 36062 ft 284 kts 258°
2026-04-22 18:59 41.83656 21.21275 36512 ft 290 kts 257°
2026-04-22 18:59 41.83039 21.18675 36904 ft 295 kts 258°
2026-04-22 18:59 41.82408 21.16037 37419 ft 298 kts 258°
2026-04-22 19:00 41.81772 21.13362 37734 ft 305 kts 258°
2026-04-22 19:00 41.81117 21.10623 38030 ft 311 kts 257°
2026-04-22 19:00 41.80452 21.07853 38479 ft 315 kts 257°
2026-04-22 19:00 41.79764 21.05036 38835 ft 320 kts 257°
2026-04-22 19:01 41.79070 21.02182 39172 ft 324 kts 257°
2026-04-22 19:01 41.78371 20.99303 39528 ft 327 kts 257°
2026-04-22 19:01 41.77663 20.96392 39881 ft 330 kts 257°
2026-04-22 19:01 41.76949 20.93457 40224 ft 333 kts 257°
2026-04-22 19:02 41.76226 20.90500 40559 ft 335 kts 256°
2026-04-22 19:02 41.75516 20.87606 41437 ft 318 kts 256°
2026-04-22 19:02 41.74846 20.84885 42187 ft 310 kts 256°
2026-04-22 19:02 41.74178 20.82121 42502 ft 314 kts 256°
2026-04-22 19:03 41.73494 20.79322 42847 ft 317 kts 256°
2026-04-22 19:03 41.72799 20.76492 43065 ft 324 kts 256°
2026-04-22 19:03 41.72082 20.73572 43075 ft 336 kts 256°
2026-04-22 19:03 41.71346 20.70577 43077 ft 338 kts 256°
2026-04-22 19:04 41.69872 20.64619 43085 ft 336 kts 256°
2026-04-22 19:04 41.68735 20.58627 43070 ft 329 kts 266°
2026-04-22 19:05 41.68862 20.52622 43069 ft 324 kts 281°
2026-04-22 19:05 41.70238 20.46919 43056 ft 323 kts 295°
2026-04-22 19:06 41.72632 20.41835 43055 ft 323 kts 302°
2026-04-22 19:07 41.76380 20.34337 43073 ft 323 kts 302°
2026-04-22 19:07 41.78880 20.29351 43063 ft 322 kts 302°
2026-04-22 19:08 41.81371 20.24359 43077 ft 322 kts 302°
2026-04-22 19:08 41.83856 20.19382 43062 ft 323 kts 302°
2026-04-22 19:09 41.86351 20.14374 43066 ft 323 kts 302°
2026-04-22 19:09 41.88860 20.09328 43060 ft 323 kts 302°
2026-04-22 19:10 41.91339 20.04334 43059 ft 323 kts 302°
2026-04-22 19:10 41.93829 19.99311 43055 ft 323 kts 302°
2026-04-22 19:11 41.96313 19.94290 43063 ft 322 kts 302°
2026-04-22 19:11 41.98795 19.89266 43053 ft 322 kts 302°
2026-04-22 19:12 42.01275 19.84240 43068 ft 323 kts 302°
2026-04-22 19:12 42.03751 19.79209 43061 ft 323 kts 302°
2026-04-22 19:13 42.06217 19.74197 43057 ft 323 kts 302°
2026-04-22 19:13 42.08695 19.69150 43058 ft 323 kts 302°
2026-04-22 19:14 42.11166 19.64107 43056 ft 323 kts 302°
2026-04-22 19:14 42.13639 19.59050 43075 ft 323 kts 302°
2026-04-22 19:15 42.15694 19.54843 43064 ft 323 kts 302°
2026-04-22 19:15 42.18580 19.48920 43059 ft 323 kts 302°
2026-04-22 19:16 42.21048 19.43848 43068 ft 323 kts 302°
2026-04-22 19:16 42.23513 19.38777 43078 ft 323 kts 302°
2026-04-22 19:17 42.25977 19.33699 43080 ft 323 kts 302°
2026-04-22 19:17 42.28416 19.28663 43080 ft 322 kts 302°
2026-04-22 19:18 42.30866 19.23593 43081 ft 322 kts 302°
2026-04-22 19:18 42.33313 19.18519 43075 ft 322 kts 302°
2026-04-22 19:19 42.35754 19.13451 43072 ft 321 kts 302°
2026-04-22 19:19 42.38193 19.08383 43069 ft 321 kts 302°
2026-04-22 19:20 42.40628 19.03311 43070 ft 321 kts 302°
2026-04-22 19:20 42.43059 18.98240 43086 ft 321 kts 302°
2026-04-22 19:21 42.45489 18.93165 43070 ft 321 kts 302°
2026-04-22 19:21 42.47901 18.88113 43070 ft 321 kts 302°
2026-04-22 19:22 42.50327 18.83024 43065 ft 322 kts 302°
2026-04-22 19:22 42.52757 18.77918 43067 ft 322 kts 302°
2026-04-22 19:23 42.55186 18.72809 43049 ft 322 kts 303°
2026-04-22 19:23 42.57615 18.67690 43046 ft 322 kts 303°
2026-04-22 19:24 42.60041 18.62571 43053 ft 322 kts 303°
2026-04-22 19:24 42.62462 18.57450 43042 ft 322 kts 302°
2026-04-22 19:25 42.64882 18.52321 43039 ft 322 kts 302°
2026-04-22 19:25 42.67288 18.47214 43035 ft 323 kts 302°
2026-04-22 19:26 42.69705 18.42073 43035 ft 323 kts 302°
2026-04-22 19:26 42.72127 18.36918 43030 ft 323 kts 302°
2026-04-22 19:27 42.74542 18.31769 43040 ft 323 kts 302°
2026-04-22 19:27 42.76958 18.26609 43044 ft 323 kts 302°
2026-04-22 19:28 42.79371 18.21443 43053 ft 323 kts 302°
2026-04-22 19:28 42.81783 18.16266 43057 ft 323 kts 302°
2026-04-22 19:29 42.84188 18.11101 43061 ft 323 kts 302°
2026-04-22 19:29 42.86597 18.05920 43074 ft 323 kts 302°
2026-04-22 19:30 42.88591 18.01618 43078 ft 323 kts 302°
2026-04-22 19:30 42.91389 17.95581 43079 ft 324 kts 302°
2026-04-22 19:31 42.93792 17.90382 43079 ft 324 kts 302°
2026-04-22 19:31 42.96191 17.85179 43088 ft 324 kts 302°
2026-04-22 19:32 42.98591 17.79968 43084 ft 324 kts 302°
2026-04-22 19:32 43.00987 17.74759 43087 ft 324 kts 302°
2026-04-22 19:33 43.03381 17.69548 43076 ft 324 kts 302°
2026-04-22 19:33 43.05778 17.64314 43085 ft 325 kts 302°
2026-04-22 19:34 43.08172 17.59077 43086 ft 325 kts 302°
2026-04-22 19:34 43.10566 17.53835 43091 ft 325 kts 302°
2026-04-22 19:35 43.12950 17.48607 43096 ft 325 kts 302°
2026-04-22 19:35 43.14939 17.44235 43097 ft 325 kts 302°
2026-04-22 19:36 43.17732 17.38087 43090 ft 325 kts 302°
2026-04-22 19:36 43.20122 17.32818 43089 ft 325 kts 302°
2026-04-22 19:37 43.22486 17.27585 43100 ft 325 kts 302°
2026-04-22 19:37 43.24868 17.22313 43100 ft 325 kts 302°
2026-04-22 19:38 43.27249 17.17033 43102 ft 325 kts 302°
2026-04-22 19:38 43.29621 17.11769 43104 ft 324 kts 302°
2026-04-22 19:39 43.31990 17.06493 43103 ft 324 kts 302°
2026-04-22 19:39 43.34362 17.01204 43121 ft 325 kts 302°
2026-04-22 19:40 43.36735 16.95902 43118 ft 326 kts 302°
2026-04-22 19:40 43.39111 16.90587 43116 ft 326 kts 302°
2026-04-22 19:41 43.41473 16.85290 43117 ft 327 kts 302°
2026-04-22 19:41 43.43852 16.79943 43114 ft 328 kts 302°
2026-04-22 19:42 43.46232 16.74588 43125 ft 328 kts 302°
2026-04-22 19:42 43.48604 16.69241 43121 ft 327 kts 302°
2026-04-22 19:43 43.51762 16.62109 43114 ft 327 kts 302°
2026-04-22 19:43 43.54127 16.56752 43128 ft 328 kts 302°
2026-04-22 19:44 43.56495 16.51378 43129 ft 328 kts 302°
2026-04-22 19:44 43.58855 16.46018 43132 ft 329 kts 302°
2026-04-22 19:45 43.61241 16.40587 43128 ft 329 kts 302°
2026-04-22 19:45 43.63596 16.35216 43130 ft 329 kts 302°
2026-04-22 19:46 43.65968 16.29798 43120 ft 329 kts 302°
2026-04-22 19:46 43.68335 16.24375 43126 ft 329 kts 302°
2026-04-22 19:47 43.70700 16.18948 43124 ft 330 kts 302°
2026-04-22 19:47 43.73066 16.13512 43124 ft 330 kts 302°
2026-04-22 19:48 43.75431 16.08069 43127 ft 330 kts 302°
2026-04-22 19:48 43.77798 16.02611 43130 ft 331 kts 302°
2026-04-22 19:49 43.80164 15.97145 43129 ft 330 kts 302°
2026-04-22 19:49 43.82508 15.91712 43134 ft 331 kts 302°
2026-04-22 19:50 43.84869 15.86237 43130 ft 331 kts 302°
2026-04-22 19:50 43.87225 15.80758 43131 ft 331 kts 302°
2026-04-22 19:51 43.89583 15.75268 43139 ft 331 kts 302°
2026-04-22 19:51 43.91939 15.69775 43157 ft 331 kts 302°
2026-04-22 19:52 43.94280 15.64303 43148 ft 332 kts 302°
2026-04-22 19:52 43.96634 15.58790 43151 ft 332 kts 302°
2026-04-22 19:53 43.98989 15.53261 43153 ft 332 kts 302°
2026-04-22 19:53 44.01321 15.47776 43154 ft 332 kts 302°
2026-04-22 19:54 44.03667 15.42251 43155 ft 332 kts 302°
2026-04-22 19:54 44.06011 15.36721 43155 ft 332 kts 302°
2026-04-22 19:55 44.08349 15.31194 43153 ft 331 kts 302°
2026-04-22 19:55 44.10685 15.25660 43154 ft 332 kts 302°
2026-04-22 19:56 44.11471 15.23792 43154 ft 332 kts 302°